Location: Unspecified
(58.9933°N, 5.6375°E)
Time: 19:15:13
(UTC+01:00)

CZ-3 Stage 3 - Visible Passes

Search period start: 22 January 2017 00:00
Search period end: 01 February 2017 00:00
Orbit: 435 x 34767 km, 30.5° (Epoch: 20 January)

Date Brightness Start Highest point End Pass type
(mag) Time Alt. Az. Time Alt. Az. Time Alt. Az.
22 Jan 9.8 21:14:19 10° ENE 01:08:48 24° E 03:01:45 10° E visible
23 Jan 9.2 05:46:32 16° WSW 08:02:30 29° W 13:35:26 10° W visible
24 Jan 9.2 02:20:16 36° S 05:38:23 53° SSW 10:35:22 10° S visible
24 Jan 9.3 22:54:00 25° ESE 04:21:09 51° SE 06:57:42 10° SE visible
25 Jan 9.7 21:01:02 10° ENE 00:57:51 24° E 02:52:10 10° E visible
26 Jan 9.2 05:44:31 18° WSW 07:51:47 29° W 13:23:58 10° W visible
27 Jan 9.2 02:18:05 39° S 05:24:48 53° SSW 10:26:11 10° S visible
27 Jan 9.4 22:51:36 27° ESE 04:09:03 51° SE 06:48:37 10° SE visible
28 Jan 9.7 20:47:51 10° ENE 00:46:53 24° E 02:42:30 10° E visible
29 Jan 9.2 05:41:49 20° WSW 07:41:00 30° W 13:12:21 10° W visible
30 Jan 8.2 02:15:08 41° S 05:11:16 53° SSW 10:16:56 10° S visible
30 Jan 8.1 22:48:26 28° ESE 03:56:55 51° SE 06:39:30 10° SE visible
